Weather History for Cape Girardeau, MO

Change the Weather History Date:

Saturday, September 29, 2012

  Actual Average Record
Temperature  
Mean Temperature 63 °F 63 °F  
Max Temperature 76 °F 76 °F 95 °F (1998)
Min Temperature 50 °F 51 °F 35 °F (2003)
Degree Days  
Heating Degree Days 2 4  
Month to date heating degree days 42 41  
Since 1 July heating degree days 42 42  
Cooling Degree Days 0 3  
Month to date cooling degree days 148 161  
Year to date cooling degree days 1764 1421  
Growing Degree Days 12 (Base 50)    
Moisture  
Dew Point 53 °F    
Average Humidity 72    
Maximum Humidity 100    
Minimum Humidity 43    
Precipitation  
Precipitation 0.00 in 0.10 in 0.70 in (1972)
Month to date precipitation 6.20 3.17  
Year to date precipitation 21.38 34.22  
Sea Level Pressure  
Sea Level Pressure 30.05 in    
Wind  
Wind Speed 3 mph (North)    
Max Wind Speed 14 mph    
Max Gust Speed 17 mph    
Visibility 9 miles    
Events      
T = Trace of Precipitation, MM = Missing Value Source: NWS Daily Summary

Daily Weather History Graph

Daily Weather History Graph

Search for Another Location

Airport:

Trip Planner

Search our weather history database for the weather conditions in past years. The results will help you decide how hot, cold, wet, or windy it might be!

Date:

Astronomy

Sep. 29, 2012 Rise Set
Actual Time 6:52 AM CDT 6:43 PM CDT
Civil Twilight 6:26 AM CDT 7:09 PM CDT
Nautical Twilight 5:56 AM CDT 7:39 PM CDT
Astronomical Twilight 5:25 AM CDT 8:10 PM CDT
Moon 6:17 PM CDT (9/29) 6:23 AM CDT (9/29)
Length of Visible Light 12h 43m
Length of Day
11h 51m
Full, 100% of the Moon is Illuminated
Sep 29
Full
Sep 29
Full
Oct 8
Last Quarter
Oct 15
New
Oct 21
First Quarter

Hourly Weather History & Observations

Time (CDT) Temp. Dew Point Humidity Pressure Visibility Wind Dir Wind Speed Gust Speed Precip Events Conditions
12:53 AM 57.0 °F 55.0 °F 93% 30.10 in 9.0 mi Calm Calm - N/A   Clear
1:53 AM 55.9 °F 54.0 °F 93% 30.10 in 9.0 mi Calm Calm - N/A   Clear
2:53 AM 54.0 °F 53.1 °F 97% 30.09 in 8.0 mi West 3.5 mph - N/A   Clear
3:53 AM 53.1 °F 52.0 °F 96% 30.08 in 5.0 mi Calm Calm - N/A   Clear
4:53 AM 52.0 °F 51.1 °F 97% 30.09 in 6.0 mi Calm Calm - N/A   Clear
5:53 AM 51.1 °F 50.0 °F 96% 30.09 in 9.0 mi WNW 4.6 mph - N/A   Clear
6:53 AM 50.0 °F 48.0 °F 93% 30.10 in 7.0 mi NW 3.5 mph - N/A   Clear
7:53 AM 54.0 °F 52.0 °F 93% 30.10 in 9.0 mi Calm Calm - N/A   Clear
8:53 AM 60.1 °F 54.0 °F 80% 30.11 in 10.0 mi NNE 3.5 mph - N/A   Clear
9:53 AM 64.9 °F 54.0 °F 68% 30.11 in 10.0 mi NNE 6.9 mph - N/A   Clear
10:53 AM 69.1 °F 54.0 °F 58% 30.10 in 10.0 mi NE 5.8 mph - N/A   Clear
11:53 AM 71.1 °F 54.0 °F 55% 30.08 in 10.0 mi North 6.9 mph - N/A   Clear
12:53 PM 72.0 °F 53.1 °F 51% 30.07 in 10.0 mi NE 9.2 mph - N/A   Clear
1:53 PM 73.9 °F 53.1 °F 48% 30.04 in 10.0 mi North 5.8 mph - N/A   Clear
2:53 PM 75.0 °F 52.0 °F 44% 30.01 in 10.0 mi ENE 5.8 mph - N/A   Clear
3:53 PM 75.9 °F 53.1 °F 45% 29.99 in 10.0 mi Calm Calm - N/A   Clear
4:53 PM 75.0 °F 52.0 °F 44% 29.99 in 10.0 mi NNE 6.9 mph - N/A   Clear
5:53 PM 73.0 °F 53.1 °F 49% 29.99 in 10.0 mi NNE 3.5 mph - N/A   Clear
6:53 PM 66.9 °F 55.9 °F 68% 29.99 in 10.0 mi North 3.5 mph - N/A   Clear
7:53 PM 61.0 °F 55.0 °F 81% 29.99 in 10.0 mi Calm Calm - N/A   Clear
8:53 PM 59.0 °F 55.0 °F 87% 29.99 in 10.0 mi Calm Calm - N/A   Clear
9:53 PM 57.0 °F 55.0 °F 93% 30.00 in 10.0 mi Calm Calm - N/A   Clear
10:53 PM 57.0 °F 55.0 °F 93% 30.00 in 10.0 mi Calm Calm - N/A   Clear
11:53 PM 55.0 °F 53.1 °F 93% 29.99 in 9.0 mi Calm Calm - N/A   Clear